Regional Weather Roundup
Issued by NWS

Home | Current Version | Previous Version | Text Only | Print | Product List | Glossary On
Versions: 1 2 3 4 5 6 7 8 9 10 11 12 13 14 15 16 17 18 19 20 21 22 23 24 25 26 27 28 29 30 31 32 33 34 35 36 37 38 39 40 41 42 43 44 45 46 47 48 49 50
000
ASUS43 KFSD 062010
RWRSD

WEATHER ROUNDUP FOR SOUTH DAKOTA
NATIONAL WEATHER SERVICE SIOUX FALLS SD
200 PM CST FRI MAR 06 2015

NOTE: "FAIR" INDICATES FEW OR NO CLOUDS BELOW 12,000 FEET WITH NO
SIGNIFICANT WEATHER AND/OR OBSTRUCTIONS TO VISIBILITY.


SDZ001>005-009-010-012>017-062100-
NORTHWEST AND NORTH CENTRAL SOUTH DAKOTA

CITY           SKY/WX    TMP DP  RH WIND       PRES   REMARKS
BUFFALO          N/A     54  18  24 NW25G38   29.98F
FAITH            N/A     55  16  21 NW20G26   30.05F
MOBRIDGE       PTSUNNY   44  19  36 S6        30.05F
$$

SDZ012>016-024>037-041>051-057-063-072>074-062100-
SOUTHWEST AND SOUTH CENTRAL SOUTH DAKOTA

CITY           SKY/WX    TMP DP  RH WIND       PRES   REMARKS
RAPID CTY ARPT MOSUNNY   57  18  21 N15       30.10F
PIERRE         MOSUNNY   49  21  33 VRB3      30.08
CUSTER         SUNNY     45  15  30 NW20G31   30.13
ELLSWORTH AFB  MOSUNNY   55  19  24 NW18      30.10F
PHILIP         MOSUNNY   58  15  18 W21G31    30.09
PINE RIDGE     MOSUNNY   51  22  31 W17G25    30.16F
SPEARFISH      FAIR      48  19  32 W22G28    30.12F
WINNER         FAIR      53  21  28 NW9       30.12
$$

SDZ004>011-016>023-039-040-062100-
NORTHEAST SOUTH DAKOTA

CITY           SKY/WX    TMP DP  RH WIND       PRES   REMARKS
ABERDEEN       MOSUNNY   40  21  46 NW7       30.11F
WATERTOWN      PTSUNNY   32  19  58 W9        30.08  WCI  24
SISSETON         N/A     35  21  56 W12       30.09F WCI  27
$$

SDZ017-020-022-023-036>040-048>070-062100-
SOUTHEAST SOUTH DAKOTA

CITY           SKY/WX    TMP DP  RH WIND       PRES   REMARKS
SIOUX FALLS    CLOUDY    44  23  43 NW12      30.11F
HURON          MOSUNNY   39  20  46 VRB5      30.13
CHAMBERLAIN    MOSUNNY   48  24  39 W3        30.12F
MITCHELL       MOSUNNY   47  19  33 NW9       30.14
YANKTON        PTSUNNY   54  21  28 NW15G23   30.13S
$$

ABBREVIATIONS USED IN REMARKS
   TC - TEMPERATURE IN CELSIUS
  WCI - WIND CHILL INDEX
   HX - HEAT INDEX
  VSB - VISIBILITY



USA.gov is the U.S. government's official web portal to all federal, state and local government web resources and services.